Theta_e
305 305 307 309 310 312 312 315 317 317 316 317 318 318 319 318 319 319 320 320 321 321 320 321 323 324 324 324 325 327 326 329 338 342 341 340 340 340 340 340 340 338 339 337
306 307 308 308 309 310 310 312 313 315 316 316 317 319 318 318 319 320 320 320 320 320 320 320 320 322 324 325 326 327 327 329 336 340 341 341 340 339 341 341 340 341 340 340
306 307 308 308 309 310 310 312 313 314 315 315 314 316 315 316 318 319 319 319 319 319 319 319 319 321 324 324 326 327 328 332 338 341 343 341 339 339 339 340 341 339 339 336
304 304 305 306 307 308 308 311 313 314 314 315 314 317 315 315 315 316 317 316 315 317 318 318 319 318 320 324 325 331 334 338 343 342 343 340 337 335 334 337 337 334 335 335
304 305 305 305 306 307 309 310 312 313 314 313 314 314 315 314 315 315 316 315 317 317 316 317 317 316 319 323 330 340 342 344 345 344 343 339 335 335 335 335 335 334 334 335
305 305 305 304 305 307 308 311 310 311 312 314 314 315 315 314 315 315 316 316 317 316 315 315 319 324 332 338 344 345 345 345 345 344 342 340 337 334 333 333 335 335 335 334
310 306 306 306 305 306 307 305 310 313 314 317 314 315 315 315 315 315 315 315 315 315 315 322 335 334 338 342 343 344 344 342 344 343 341 340 338 337 335 334 334 333 333 332
313 311 308 312 308 308 304 304 308 315 316 314 314 316 315 314 314 315 315 314 314 319 330 333 334 336 339 340 341 342 341 340 342 341 339 339 337 335 334 334 334 334 333 332
313 312 310 310 310 309 310 305 305 306 310 311 314 314 315 315 315 315 314 314 317 326 332 335 336 337 338 337 338 340 337 335 335 335 334 334 334 334 333 333 333 332 332 331
310 311 309 310 309 308 308 309 306 305 311 314 314 315 316 316 316 316 315 315 321 332 335 337 337 335 336 335 336 338 336 334 333 333 333 333 333 333 332 332 332 332 331 330
309 309 309 310 308 306 309 311 309 306 308 313 315 316 314 315 315 315 315 316 330 334 336 338 336 334 335 334 334 333 333 333 332 332 332 332 332 332 331 330 330 330 328 327
310 310 313 310 308 308 309 310 311 309 309 309 312 313 314 313 313 314 324 324 334 334 336 336 335 334 334 332 333 332 333 333 333 332 332 331 331 330 329 330 330 329 329 329
310 308 310 307 311 312 311 313 311 314 312 315 311 313 313 313 313 319 328 335 335 336 336 335 335 335 333 332 332 332 333 333 332 332 331 330 330 330 329 330 329 328 328 329
310 307 309 308 309 310 312 314 315 315 315 315 314 312 312 312 315 315 334 334 335 337 337 336 335 334 333 332 332 332 333 333 332 331 331 331 330 329 329 329 329 327 326 326
309 311 310 310 311 312 313 314 315 315 315 317 316 316 314 315 316 316 330 333 336 337 337 336 335 334 333 332 332 333 333 333 332 331 330 330 330 330 329 329 327 327 326 327
311 310 312 311 311 310 316 313 314 315 315 314 315 315 315 316 326 332 332 336 338 337 337 336 335 334 333 332 332 332 332 332 333 333 331 330 331 330 329 328 327 327 326 327
310 310 311 310 309 312 315 314 314 315 313 313 315 315 316 318 321 333 334 336 337 337 336 335 335 334 332 332 331 331 332 331 332 332 332 331 330 329 328 328 327 327 327 327
308 311 311 311 311 313 315 319 319 317 312 312 314 314 323 322 321 333 332 333 336 335 334 334 333 332 332 332 331 332 331 330 332 332 332 331 329 328 328 327 327 326 328 329
308 308 310 311 314 314 317 319 318 320 321 326 328 328 329 327 330 334 332 332 332 333 333 332 332 332 331 331 331 330 329 329 332 334 333 329 328 326 327 327 325 327 327 328
312 308 310 313 315 319 321 315 312 315 322 323 324 326 326 328 334 332 333 331 330 329 329 331 332 332 330 329 330 328 329 330 331 333 332 329 327 326 327 327 326 328 328 328
315 311 312 311 314 316 314 311 312 324 323 321 323 322 324 329 327 327 330 330 330 327 329 331 331 329 329 328 328 327 328 329 331 332 332 330 328 327 328 328 328 329 329 329
315 315 317 314 317 319 310 309 322 321 319 320 319 320 323 327 326 328 330 330 330 328 329 330 329 328 326 327 327 325 326 330 331 331 331 330 328 329 329 328 329 330 330 330
315 310 313 313 314 307 307 310 309 318 318 319 320 319 322 323 323 323 325 328 329 331 330 330 329 324 324 325 326 324 328 328 330 330 330 329 329 329 328 329 330 330 330 330
312 310 309 311 311 309 312 316 315 317 318 318 318 322 321 321 320 320 322 324 325 331 330 328 325 324 323 325 325 327 326 326 329 329 329 329 329 329 329 330 330 330 330 329
312 313 312 310 313 313 315 316 315 316 316 318 319 319 318 318 318 320 322 322 322 323 328 326 326 325 324 324 325 326 325 326 329 329 329 329 330 329 330 330 331 330 330 329
311 311 314 314 313 314 315 315 315 316 316 315 316 317 316 317 318 318 320 321 321 322 324 327 327 325 323 324 325 325 325 326 329 329 329 330 330 330 330 330 330 330 330 330
Wind_Speed
4 5 15 19 16 10 5 6 2 4 7 13 18 27 21 13 15 20 21 21 21 21 12 21 29 40 37 35 29 26 26 31 32 33 29 28 31 31 29 29 27 25 25 24
2 17 8 3 5 11 11 10 8 6 11 5 10 21 16 12 15 17 17 15 15 12 14 15 21 28 30 30 29 31 33 29 32 30 26 16 25 26 28 24 23 25 24 24
6 6 9 9 4 6 5 9 9 6 9 16 9 20 12 10 13 18 20 18 13 12 14 13 12 18 28 24 28 25 27 28 28 26 22 15 20 21 20 22 23 20 22 23
7 9 8 6 12 13 15 4 7 5 5 9 6 15 20 20 20 13 15 14 10 13 12 9 13 12 16 27 22 20 22 22 23 24 25 29 19 19 20 33 24 23 24 24
7 3 4 13 11 6 6 11 9 10 8 4 4 4 28 8 14 20 20 15 18 16 10 13 13 10 20 19 21 20 20 21 23 27 29 30 25 19 27 29 27 24 23 22
10 9 6 7 10 8 4 7 9 6 3 6 12 9 27 10 15 9 9 10 12 11 10 10 7 8 4 12 17 19 23 25 26 26 30 31 31 27 27 23 24 24 22 20
1 15 16 9 7 5 4 4 2 2 4 13 12 13 23 5 4 6 7 10 11 10 9 8 1 4 8 13 19 21 25 26 25 24 25 25 25 23 23 24 25 24 21 17
0 5 8 4 8 6 6 9 4 6 7 6 13 13 9 10 14 16 13 14 9 8 5 5 6 6 8 14 19 23 25 26 23 22 21 21 20 20 20 21 22 21 17 12
1 6 3 4 3 4 2 4 8 4 4 2 5 8 10 11 19 8 12 7 11 9 7 7 7 7 13 17 20 25 26 27 26 24 22 21 20 20 20 19 17 15 11 9
3 3 4 5 2 5 6 3 3 1 4 5 6 7 11 2 13 5 8 9 8 6 7 8 8 8 12 19 24 28 29 29 29 28 27 25 23 20 18 16 15 12 10 10
3 1 4 3 3 4 2 3 3 4 5 4 3 7 6 13 5 9 14 10 9 9 10 10 8 9 15 22 24 26 30 31 29 27 25 23 21 18 15 14 13 12 13 12
2 3 4 8 6 5 4 3 2 3 9 4 3 7 11 3 7 8 17 5 9 10 10 10 10 10 14 17 22 25 30 30 28 26 25 22 19 16 14 13 13 14 13 10
2 2 4 8 3 3 1 4 4 1 2 6 5 6 5 8 9 9 8 3 10 13 13 11 11 10 10 15 19 24 27 28 25 24 23 19 18 17 15 14 14 12 12 9
5 4 5 5 6 3 6 11 4 4 3 5 19 11 25 14 17 14 3 5 1 13 13 12 10 10 10 16 18 22 26 26 23 21 19 20 20 18 15 14 14 13 9 7
4 5 5 9 12 14 13 17 16 11 8 5 9 10 14 13 17 14 9 9 8 11 13 12 11 10 9 13 18 23 26 25 23 21 21 21 20 15 14 14 11 12 10 4
5 3 3 11 14 11 17 20 19 16 14 10 10 24 9 14 9 8 12 15 15 11 14 13 13 12 11 14 17 22 26 25 21 19 17 20 17 15 15 13 11 10 6 6
6 3 3 7 9 12 10 16 19 11 8 13 10 13 10 11 11 8 3 14 17 15 16 15 14 13 11 17 21 22 28 25 20 17 18 18 18 17 16 13 11 9 7 8
7 4 3 7 5 5 4 3 5 12 16 16 8 9 15 13 10 4 4 5 11 15 16 14 13 11 18 21 24 28 27 23 19 18 20 20 21 17 15 15 12 9 9 11
13 7 3 3 4 10 12 4 4 7 5 3 5 10 10 7 4 3 4 4 2 9 11 14 19 20 21 25 29 27 24 23 18 17 22 22 20 17 16 15 13 10 9 10
5 15 5 2 4 4 3 6 11 8 5 5 8 9 7 5 5 4 3 3 5 7 8 11 19 19 21 23 30 25 22 23 20 21 24 22 21 18 16 16 14 11 10 11
2 4 10 6 4 6 4 12 12 6 2 11 11 12 6 2 4 3 4 2 4 6 10 17 19 19 23 28 29 20 21 21 24 22 24 22 20 20 16 14 13 10 9 10
2 2 3 4 5 4 6 13 4 4 5 7 12 8 7 1 8 5 7 7 4 6 13 20 16 15 22 29 27 19 20 28 22 24 25 24 21 19 17 15 12 10 10 13
1 1 3 2 2 5 15 15 15 3 3 13 12 13 7 8 11 8 6 4 4 4 13 22 20 17 21 27 29 22 29 26 24 26 26 25 22 18 17 15 13 11 11 14
2 1 1 3 5 6 14 10 12 19 16 16 13 5 3 13 12 8 5 8 8 5 5 18 19 16 16 25 29 32 28 26 26 28 27 24 22 18 16 13 13 13 13 14
2 5 6 4 6 6 8 13 18 17 18 17 10 9 9 13 14 11 11 11 11 8 3 13 17 17 20 27 29 31 27 27 27 28 28 24 22 20 16 14 13 12 11 13
2 4 3 3 9 6 7 10 14 14 16 16 11 12 13 16 16 10 12 10 10 12 16 8 5 12 19 26 27 29 27 28 27 23 24 26 24 21 18 16 13 11 9 10
Wind_Direction
199 161 209 206 218 253 340 307 326 336 215 215 230 254 256 253 254 257 260 263 264 265 266 267 269 272 278 278 268 232 216 216 211 204 195 199 200 201 206 210 211 208 209 202
234 229 219 169 175 230 259 275 279 277 270 259 276 270 278 260 254 254 251 248 252 264 275 269 266 271 271 260 249 233 229 220 214 207 194 199 191 193 198 199 200 200 199 201
227 254 218 230 246 264 244 232 250 248 307 300 303 288 274 252 252 252 257 255 254 242 256 265 269 259 261 252 238 226 220 216 207 197 180 171 170 170 172 182 179 182 192 196
227 243 258 255 235 231 254 249 257 254 222 258 4 290 276 266 257 241 249 253 242 245 251 247 262 266 249 255 238 229 216 203 196 185 177 161 151 152 161 165 176 190 195 202
244 267 236 231 239 225 257 231 233 224 252 258 248 291 273 211 252 246 246 245 250 251 242 249 249 251 266 248 221 202 182 178 174 176 177 160 150 156 159 169 176 189 195 197
236 255 226 230 245 222 225 213 220 220 197 252 222 208 273 240 243 244 230 237 245 247 246 249 282 293 180 169 162 161 155 155 158 167 171 168 161 152 155 157 162 169 175 182
212 240 254 223 239 243 174 92 182 172 187 234 188 208 247 274 254 246 261 255 257 266 279 286 199 121 125 125 131 138 147 144 152 160 164 166 163 165 158 161 169 170 175 183
181 304 248 221 193 206 184 165 185 179 184 230 233 233 249 231 239 259 261 257 247 250 226 177 144 124 108 112 122 133 137 136 146 151 153 162 167 164 165 168 171 176 184 191
22 233 330 110 122 127 318 171 209 3 216 213 243 281 287 269 268 258 259 270 246 211 179 146 124 118 111 113 127 135 134 134 140 145 150 149 152 155 153 158 168 178 185 190
298 331 332 357 344 216 167 222 124 80 226 237 260 256 235 255 258 324 283 243 236 151 135 125 122 112 114 126 136 140 140 136 137 133 133 135 142 146 152 162 174 180 180 177
11 116 291 358 230 205 163 240 221 187 210 213 282 254 211 211 294 293 303 277 185 154 139 130 126 117 122 131 132 134 137 136 136 135 135 138 140 141 151 164 170 176 165 164
297 162 248 234 244 297 317 207 157 185 228 238 238 263 283 327 312 327 311 288 140 136 133 129 128 127 131 131 131 136 140 140 142 141 142 143 147 150 157 163 166 165 168 172
315 19 339 330 13 32 234 289 188 259 263 237 225 257 354 358 328 339 316 108 138 133 132 135 134 140 137 136 136 141 147 148 147 150 155 156 160 166 168 167 166 171 175 175
163 181 192 196 263 314 296 283 266 194 251 243 244 309 280 310 327 334 79 84 238 140 140 140 141 144 141 141 145 150 155 157 159 162 165 171 177 175 171 168 170 178 177 182
138 224 210 238 261 275 265 261 265 231 234 252 314 281 281 311 292 288 231 147 153 156 146 151 148 147 145 144 154 159 164 169 174 174 178 184 175 172 169 168 170 178 179 155
184 271 253 266 260 257 292 249 250 242 242 245 262 275 271 267 304 293 198 163 160 178 152 157 152 155 155 159 163 167 175 181 183 182 183 175 169 168 168 172 164 172 174 150
186 214 271 269 299 336 287 222 229 229 218 203 217 261 283 292 319 335 333 173 161 175 163 161 159 163 165 167 170 172 182 187 179 181 183 169 164 165 170 179 178 178 186 164
216 201 220 280 324 258 217 54 250 229 234 218 241 277 285 270 274 231 61 173 173 175 166 161 161 164 170 171 178 181 185 187 176 173 171 173 167 168 171 174 183 189 156 156
216 209 245 243 261 295 287 51 24 359 283 116 267 287 297 207 195 316 79 47 241 190 177 162 166 169 166 174 183 183 184 183 178 163 174 176 176 170 174 176 177 178 166 157
284 203 190 174 294 301 23 357 348 329 268 345 346 311 327 328 200 229 198 83 311 195 164 164 165 165 168 177 184 176 173 175 177 176 178 180 181 177 183 186 187 183 179 174
137 173 210 224 231 263 344 321 317 201 281 331 348 328 298 182 226 193 181 268 220 239 155 163 161 169 177 179 179 169 170 179 184 179 179 181 182 186 189 176 177 175 172 167
329 286 196 202 218 239 3 315 208 323 332 337 336 313 305 312 56 27 75 242 314 224 154 159 160 168 177 176 172 167 176 190 180 176 179 181 186 190 190 177 169 158 156 168
303 302 280 260 317 286 291 253 263 350 12 3 339 305 288 59 49 25 356 316 325 210 166 166 166 153 170 175 175 170 192 187 178 178 183 187 189 195 187 176 166 154 152 160
284 147 288 283 25 315 298 339 25 28 7 344 334 309 36 75 55 45 21 9 31 51 171 160 153 158 164 177 182 189 189 187 180 181 186 188 186 189 185 184 178 172 170 170
265 310 332 292 282 303 293 16 28 20 2 354 15 13 43 60 48 35 37 31 30 23 70 159 163 166 174 178 186 188 185 183 181 181 184 188 186 180 177 178 184 193 199 197
323 321 358 300 302 306 338 24 24 23 12 351 16 27 39 54 53 21 30 25 29 33 42 66 122 164 170 177 187 189 186 186 183 169 176 185 185 183 185 178 182 203 215 218